Location: Dodge City Community College Clyde Tombaugh Astronomy Center
(37.7756°N, 100.0412°W)
Time: 00:47:27
(UTC+00:00)

Cosmos 2228 Rocket - Pass Details

Date: 07 July 2022
Orbit: 618 x 651 km, 82.5° (Epoch: 16 August)

Event Time Altitude Azimuth Distance (km) Brightness Sun altitude
Rises 08:41:09 0° 12° (NNE) 2,924 7.8 -23.8°
Reaches altitude 10° 08:44:14 10° 35° (NE) 2,018 6.8 -23.5°
Maximum altitude 08:46:56 16° 73° (ENE) 1,675 5.8 -23.2°
Drops below altitude 10° 08:49:38 10° 110° (ESE) 2,022 5.8 -22.9°
Enters shadow 08:52:34 - 132° (SE) 2,884 6.4 -22.6°
